Location: Stigler
(35.2540°N, 95.1230°W)
Time: 09:42:26
(UTC-05:00)

Daily predictions for brighter satellites

Satellite Brightness Start Highest point End
(mag) Time Altitude Azimuth Time Altitude Azimuth Time Altitude Azimuth
Meteor 2-5 Rocket 4.0 19:26:48 10° N 19:32:26 50° ENE 19:37:57 10° SSE
Cosmos 2181 Rocket 4.0 19:26:38 10° N 19:32:46 65° E 19:38:49 10° SSE
Cosmos 1271 Rocket 4.3 19:31:32 10° SSW 19:35:06 40° WNW 19:38:45 10° N
ISS -3.6 19:32:56 10° SSW 19:36:07 54° SE 19:39:19 10° ENE
Cosmos 2074 Rocket 4.3 19:32:45 10° SSE 19:38:35 45° E 19:44:26 10° NNE
ALOS 2.5 19:34:09 10° SSE 19:38:37 47° ENE 19:43:06 10° N
BREEZE-M DEB (TANK) 4.5 19:21:24 10° SW 19:42:30 82° SSE 19:47:42 10° ENE
YAOGAN 1 3.9 19:40:37 10° S 19:44:45 44° W 19:48:54 10° NNW
Cosmos 1812 Rocket 4.4 19:49:57 10° SSE 19:53:45 28° E 19:57:33 10° NNE
FREGAT/IRIS 3.2 19:52:44 10° SE 19:55:32 35° ENE 19:58:20 10° N
ATLAS 3B CENTAUR R/B 4.3 19:48:11 10° SW 19:56:01 56° SSE 20:14:14 15° E
Cosmos 1805 4.1 19:53:32 10° SSE 19:56:51 27° E 20:00:11 10° NNE
Cosmos 836 Rocket 4.5 19:52:37 10° S 19:57:51 70° ESE 20:03:06 10° NNE
ATLAS 5 CENTAUR R/B 3.5 19:56:41 10° SE 19:57:39 12° ESE 19:57:39 12° ESE
Cosmos 1943 Rocket 3.7 19:54:26 10° NW 19:59:36 39° WSW 20:04:45 10° S
Cosmos 1953 Rocket 4.3 19:56:04 10° NNW 20:00:19 56° W 20:04:32 10° S
USA 234 3.4 19:54:17 10° SE 20:00:51 82° SW 20:07:26 10° NW
Resurs 01 Rocket 3.1 20:01:55 16° E 20:03:19 18° ENE 20:06:16 10° NNE
Cosmos 2058 Rocket 3.8 19:59:19 10° SSW 20:03:35 56° W 20:07:54 10° N
Thor Agena Rocket 3.5 19:58:22 10° NNE 20:03:37 87° ESE 20:08:45 10° SSW
GP-B 4.2 20:02:21 10° NNE 20:05:53 23° E 20:08:55 12° SE
ATLAS CENTAUR R/B 3.3 19:53:17 10° NW 20:06:30 71° NE 20:10:27 14° SE
Cosmos 1900 4.3 20:10:50 10° SSW 20:15:52 74° ESE 20:21:00 10° NNE
Cosmos 372 Rocket 4.3 20:12:19 10° N 20:17:23 45° ENE 20:21:22 16° SE
Yuri Rocket 4.1 20:13:26 10° WSW 20:18:01 34° S 20:20:13 21° SE
Cosmos 2184 Rocket 4.1 20:12:19 10° S 20:18:38 86° W 20:25:02 10° N
Cosmos 1125 Rocket 3.6 20:17:20 10° N 20:22:34 59° ENE 20:27:19 13° SSE
Cosmos 1610 Rocket 4.5 20:16:44 10° S 20:23:03 72° E 20:29:25 10° N
Cosmos 1356 3.9 20:21:16 10° N 20:24:33 37° ENE 20:25:00 36° E
Geosat 3.9 20:19:49 10° SSE 20:24:49 77° ENE 20:29:52 10° NNW
Envisat 3.9 20:24:15 25° E 20:25:23 27° ENE 20:29:37 10° NNE
Meteor 1-24 Rocket 3.8 20:19:50 10° N 20:25:46 88° W 20:31:28 10° S
ORS 1 (USA 231) 4.2 20:24:49 10° WNW 20:27:46 87° NNE 20:28:16 58° ESE
OAO 3 Rocket 4.3 20:23:59 10° SSW 20:28:03 26° SSE 20:29:01 25° SE
Cosmos 1656 Rocket 4.5 20:24:15 10° NNW 20:29:42 52° WSW 20:35:01 10° S
Gbstr 26 Del rocket 4.2 20:25:43 10° S 20:29:58 32° SE 20:31:04 29° ESE
FENGYUN 3A 4.5 20:25:55 10° S 20:31:07 53° W 20:36:22 10° NNW
H-2A R/B 2.8 20:30:53 10° S 20:34:34 72° WSW 20:38:20 10° NNW
Cosmos 1544 3.9 20:31:21 10° SSW 20:34:52 51° W 20:38:24 10° N
SJ-6B 2.8 20:32:40 10° S 20:36:40 81° W 20:40:36 10° NNW
ATLAS 2AS CENTAUR R/B 4.0 20:31:42 10° NNW 20:38:11 26° NE 20:40:36 22° ENE
Cosmos 1953 2.3 20:38:27 10° S 20:42:24 59° E 20:46:25 10° NNE
BREEZE M DEB (TANK) 2.5 20:42:18 10° NW 20:47:38 66° NNE 20:47:45 66° NE
SL-27 R/B 3.3 20:44:21 10° SSW 20:47:51 51° WNW 20:51:25 10° N
NOSS 3-1 (A) 4.4 20:40:12 10° NW 20:48:01 70° WSW 20:56:30 10° SSE
Cosmos 292 Rocket 3.8 20:47:29 10° SSW 20:52:19 79° WNW 20:57:12 10° NNE
NOSS 3-3 (A) 4.1 20:49:00 10° S 20:54:41 46° ESE 20:55:46 42° E
NOSS 3-3 (C) 4.1 20:49:08 10° S 20:54:47 45° ESE 20:55:39 42° E
Cosmos 962 Rocket 4.4 20:50:45 10° S 20:57:04 75° E 21:03:26 10° N
SJ 16-02 1.3 20:56:56 10° NNW 21:01:20 84° WSW 21:02:00 63° S
Cosmos 1674 3.8 20:58:28 10° N 21:00:39 33° N 21:00:39 33° N
OAO 3 Copernicus 4.2 21:04:46 10° W 21:09:48 71° SSW 21:09:58 70° S
Resurs 1-3 3.5 21:10:38 84° WNW 21:10:38 84° WNW 21:14:57 10° NNW
ISS -1.2 21:10:38 10° WNW 21:12:49 16° NNW 21:13:15 16° NNW
Cosmos 1833 Rocket 4.2 21:07:38 10° S 21:20:14 - NNE 21:09:31 22° S
Cosmos 2369 4.0 21:11:14 10° NNW 21:16:07 51° NE 21:16:07 51° NE
Milstar 3 Cent rocket 2.9 21:15:13 10° WSW 21:19:07 35° SSW 21:19:07 35° SSW
Centaur D AC-29 2.8 21:16:34 10° WSW 21:24:06 31° SSW 21:24:06 31° SSW
MOS 1-B Rocket 4.1 21:27:39 40° S 21:29:53 69° WSW 21:35:34 10° NNW
Spot 2 Rocket 3.8 21:31:12 58° WSW 21:31:32 60° WSW 21:36:31 10° NNW
FALCON 9 R/B 2.4 21:33:05 10° W 21:36:10 63° WSW 21:36:10 63° WSW
Cosmos 2082 Rocket 3.9 21:33:48 10° SSW 21:45:39 - NNE 21:35:35 21° SSW
Resurs 01 Rocket 3.0 21:39:31 35° W 21:39:31 35° W 21:43:34 10° NNW
ATLAS 5 CENTAUR R/B 3.7 21:37:54 10° SW 21:39:22 20° SW 21:39:22 20° SW
Cosmos 2278 4.3 21:44:52 10° NNW 21:49:05 51° NNW 21:49:05 51° NNW
Cosmos 1697 Rocket 4.2 22:02:02 10° NNW 22:04:42 29° NNW 22:04:42 29° NNW
Cosmos 1980 Rocket 4.2 22:04:43 10° N 22:06:24 19° N 22:06:24 19° N
ATLAS 2AS CENTAUR R/B 3.5 22:22:06 10° NW 22:28:02 53° NW 22:28:02 53° NW
